• In Belgien
  • Länderverzeichnis
  • Für 7 Tage
  • Wassertemperatur
  • Satellitenkarten
  • Wetterkarte
  • Widgets
  • user-avatar
    Anmelden

    Stündliche Wetter Antwerpen

    Heute, 16 Juli, Montag

    Zeit Temperatur Niederschläge Wind Luftdruck Luftfeuchtigkeit
    00:00 +20°C° 0 mm 2 m/S 760 mmHg 55%
    01:00 +19°C° 0 mm 2 m/S 760 mmHg 56%
    02:00 +18°C° 0 mm 2 m/S 760 mmHg 58%
    03:00 +18°C° 0 mm 2 m/S 759 mmHg 59%
    04:00 +19°C° 0 mm 2 m/S 759 mmHg 58%
    05:00 +20°C° 0 mm 2 m/S 759 mmHg 58%
    06:00 +21°C° 0 mm 2 m/S 759 mmHg 54%
    07:00 +24°C° 0 mm 1 m/S 759 mmHg 49%
    08:00 +26°C° 0 mm 1 m/S 759 mmHg 44%
    09:00 +29°C° 0 mm 1 m/S 759 mmHg 39%
    10:00 +28°C° 0 mm 2 m/S 759 mmHg 39%
    11:00 +29°C° 0 mm 2 m/S 759 mmHg 38%
    12:00 +31°C° 0 mm 1 m/S 759 mmHg 32%
    13:00 +31°C° 0,1 mm 2 m/S 759 mmHg 31%
    14:00 +31°C° 0,1 mm 2 m/S 758 mmHg 31%
    15:00 +31°C° 0,1 mm 2 m/S 758 mmHg 31%
    16:00 +30°C° 0 mm 2 m/S 758 mmHg 35%
    17:00 +30°C° 0 mm 2 m/S 758 mmHg 38%
    18:00 +29°C° 0 mm 2 m/S 758 mmHg 42%
    19:00 +27°C° 0,1 mm 2 m/S 759 mmHg 46%
    20:00 +25°C° 0,1 mm 2 m/S 759 mmHg 49%
    21:00 +24°C° 0,1 mm 2 m/S 759 mmHg 53%
    22:00 +23°C° 0,2 mm 2 m/S 759 mmHg 59%
    23:00 +20°C° 0,2 mm 2 m/S 759 mmHg 65%

    Morgen, 17 Juli, Dienstag

    Zeit Temperatur Niederschläge Wind Luftdruck Luftfeuchtigkeit
    00:00 +19°C° 0,2 mm 2 m/S 760 mmHg 71%
    01:00 +19°C° 0,1 mm 2 m/S 759 mmHg 73%
    02:00 +18°C° 0,1 mm 2 m/S 759 mmHg 76%
    03:00 +17°C° 0,1 mm 2 m/S 759 mmHg 78%
    04:00 +18°C° 0 mm 3 m/S 759 mmHg 77%
    05:00 +18°C° 0 mm 3 m/S 760 mmHg 75%
    06:00 +19°C° 0 mm 3 m/S 760 mmHg 74%
    07:00 +21°C° 0 mm 4 m/S 760 mmHg 68%
    08:00 +23°C° 0 mm 4 m/S 760 mmHg 63%
    09:00 +25°C° 0 mm 4 m/S 760 mmHg 57%
    10:00 +26°C° 0,1 mm 4 m/S 760 mmHg 55%
    11:00 +26°C° 0,1 mm 5 m/S 760 mmHg 53%
    12:00 +27°C° 0,1 mm 5 m/S 760 mmHg 51%
    13:00 +26°C° 0,2 mm 5 m/S 760 mmHg 50%
    14:00 +26°C° 0,2 mm 5 m/S 761 mmHg 49%
    15:00 +26°C° 0,2 mm 4 m/S 761 mmHg 48%
    16:00 +25°C° 0 mm 4 m/S 761 mmHg 50%
    17:00 +25°C° 0 mm 4 m/S 761 mmHg 51%
    18:00 +24°C° 0 mm 3 m/S 761 mmHg 52%
    19:00 +21°C° 0 mm 3 m/S 761 mmHg 59%
    20:00 +19°C° 0 mm 3 m/S 762 mmHg 65%
    21:00 +17°C° 0 mm 2 m/S 762 mmHg 72%
    22:00 +16°C° 0 mm 2 m/S 762 mmHg 75%
    23:00 +16°C° 0 mm 2 m/S 762 mmHg 79%

    übermorgen, 18 Juli, Mittwoch

    Zeit Temperatur Niederschläge Wind Luftdruck Luftfeuchtigkeit
    00:00 +15°C° 0 mm 2 m/S 762 mmHg 83%
    01:00 +15°C° 0 mm 2 m/S 762 mmHg 84%
    02:00 +14°C° 0 mm 2 m/S 762 mmHg 86%
    03:00 +14°C° 0 mm 2 m/S 762 mmHg 87%
    04:00 +15°C° 0 mm 2 m/S 763 mmHg 83%
    05:00 +16°C° 0 mm 2 m/S 763 mmHg 79%
    06:00 +17°C° 0 mm 2 m/S 763 mmHg 75%
    07:00 +19°C° 0 mm 2 m/S 763 mmHg 68%
    08:00 +20°C° 0 mm 2 m/S 763 mmHg 62%
    09:00 +23°C° 0 mm 2 m/S 763 mmHg 55%
    10:00 +24°C° 0 mm 2 m/S 763 mmHg 51%
    11:00 +25°C° 0 mm 2 m/S 763 mmHg 47%
    12:00 +26°C° 0 mm 2 m/S 763 mmHg 43%
    13:00 +27°C° 0 mm 2 m/S 763 mmHg 43%
    14:00 +27°C° 0 mm 2 m/S 762 mmHg 43%
    15:00 +27°C° 0 mm 3 m/S 762 mmHg 43%
    16:00 +26°C° 0 mm 3 m/S 762 mmHg 46%
    17:00 +26°C° 0 mm 3 m/S 762 mmHg 49%
    18:00 +25°C° 0 mm 3 m/S 762 mmHg 52%
    19:00 +22°C° 0 mm 3 m/S 763 mmHg 59%
    20:00 +20°C° 0 mm 3 m/S 763 mmHg 65%
    21:00 +18°C° 0 mm 3 m/S 763 mmHg 72%
    22:00 +18°C° 0 mm 3 m/S 763 mmHg 74%
    23:00 +17°C° 0 mm 2 m/S 763 mmHg 76%

    19 Juli, Donnerstag

    Zeit Temperatur Niederschläge Wind Luftdruck Luftfeuchtigkeit
    00:00 +17°C° 0 mm 2 m/S 763 mmHg 78%
    01:00 +16°C° 0 mm 2 m/S 763 mmHg 81%
    02:00 +16°C° 0 mm 1 m/S 763 mmHg 83%
    03:00 +15°C° 0 mm 1 m/S 763 mmHg 86%
    04:00 +16°C° 0 mm 1 m/S 763 mmHg 82%
    05:00 +18°C° 0 mm 1 m/S 763 mmHg 78%
    06:00 +18°C° 0 mm 2 m/S 763 mmHg 74%
    07:00 +20°C° 0 mm 2 m/S 763 mmHg 67%
    08:00 +23°C° 0 mm 2 m/S 763 mmHg 61%
    09:00 +25°C° 0 mm 2 m/S 763 mmHg 54%
    10:00 +26°C° 0 mm 2 m/S 763 mmHg 50%
    11:00 +27°C° 0 mm 2 m/S 763 mmHg 46%
    12:00 +28°C° 0 mm 2 m/S 762 mmHg 42%
    13:00 +28°C° 0 mm 2 m/S 762 mmHg 42%
    14:00 +28°C° 0 mm 3 m/S 762 mmHg 42%
    15:00 +28°C° 0 mm 3 m/S 762 mmHg 41%
    16:00 +28°C° 0 mm 3 m/S 762 mmHg 44%
    17:00 +27°C° 0 mm 4 m/S 762 mmHg 47%
    18:00 +26°C° 0 mm 4 m/S 762 mmHg 49%
    19:00 +23°C° 0 mm 4 m/S 762 mmHg 54%
    20:00 +22°C° 0 mm 4 m/S 762 mmHg 58%
    21:00 +20°C° 0 mm 4 m/S 762 mmHg 62%
    22:00 +19°C° 0 mm 3 m/S 762 mmHg 67%
    23:00 +19°C° 0 mm 3 m/S 762 mmHg 71%

    20 Juli, Freitag

    Zeit Temperatur Niederschläge Wind Luftdruck Luftfeuchtigkeit
    00:00 +18°C° 0 mm 3 m/S 762 mmHg 76%
    01:00 +17°C° 0 mm 2 m/S 761 mmHg 79%
    02:00 +17°C° 0 mm 2 m/S 761 mmHg 82%
    03:00 +16°C° 0 mm 2 m/S 761 mmHg 84%
    04:00 +17°C° 0 mm 2 m/S 761 mmHg 81%
    05:00 +18°C° 0 mm 2 m/S 760 mmHg 77%
    06:00 +19°C° 0 mm 2 m/S 760 mmHg 74%
    07:00 +20°C° 0 mm 2 m/S 760 mmHg 69%
    08:00 +23°C° 0 mm 2 m/S 760 mmHg 64%
    09:00 +24°C° 0 mm 2 m/S 760 mmHg 59%
    10:00 +25°C° 0,1 mm 2 m/S 760 mmHg 58%
    11:00 +25°C° 0,1 mm 3 m/S 760 mmHg 56%
    12:00 +26°C° 0,1 mm 3 m/S 760 mmHg 54%
    13:00 +26°C° 0,2 mm 3 m/S 760 mmHg 53%
    14:00 +27°C° 0,2 mm 4 m/S 759 mmHg 52%
    15:00 +28°C° 0,2 mm 4 m/S 759 mmHg 50%
    16:00 +26°C° 0,6 mm 4 m/S 759 mmHg 56%
    17:00 +25°C° 0,6 mm 4 m/S 759 mmHg 62%
    18:00 +24°C° 0,6 mm 3 m/S 759 mmHg 68%
    19:00 +21°C° 0,5 mm 4 m/S 759 mmHg 73%
    20:00 +20°C° 0,5 mm 4 m/S 760 mmHg 78%
    21:00 +19°C° 0,5 mm 4 m/S 760 mmHg 82%
    22:00 +18°C° 0,5 mm 4 m/S 760 mmHg 84%
    23:00 +18°C° 0,5 mm 4 m/S 760 mmHg 85%

    21 Juli, Samstag

    Zeit Temperatur Niederschläge Wind Luftdruck Luftfeuchtigkeit
    00:00 +17°C° 0,5 mm 4 m/S 760 mmHg 86%
    01:00 +17°C° 0,2 mm 4 m/S 760 mmHg 87%
    02:00 +17°C° 0,2 mm 3 m/S 760 mmHg 88%
    03:00 +16°C° 0,2 mm 3 m/S 760 mmHg 89%
    04:00 +17°C° 0,1 mm 3 m/S 760 mmHg 86%
    05:00 +17°C° 0,1 mm 3 m/S 760 mmHg 84%
    06:00 +18°C° 0,1 mm 3 m/S 760 mmHg 82%
    07:00 +19°C° 0 mm 4 m/S 760 mmHg 75%
    08:00 +20°C° 0 mm 4 m/S 761 mmHg 68%
    09:00 +21°C° 0 mm 4 m/S 761 mmHg 61%
    10:00 +21°C° 0 mm 4 m/S 761 mmHg 59%
    11:00 +22°C° 0 mm 5 m/S 761 mmHg 57%
    12:00 +22°C° 0 mm 5 m/S 761 mmHg 55%
    13:00 +22°C° 0 mm 5 m/S 761 mmHg 55%
    14:00 +23°C° 0 mm 5 m/S 761 mmHg 55%
    15:00 +23°C° 0 mm 6 m/S 761 mmHg 55%
    16:00 +22°C° 0 mm 5 m/S 761 mmHg 56%
    17:00 +22°C° 0 mm 5 m/S 761 mmHg 58%
    18:00 +21°C° 0 mm 5 m/S 761 mmHg 60%
    19:00 +19°C° 0 mm 4 m/S 761 mmHg 67%
    20:00 +18°C° 0 mm 3 m/S 762 mmHg 74%
    21:00 +16°C° 0 mm 2 m/S 762 mmHg 82%
    22:00 +16°C° 0 mm 2 m/S 762 mmHg 84%
    23:00 +15°C° 0 mm 2 m/S 762 mmHg 85%
    Mehr zeigen